Location: Eaton Estates
(41.3089°N, 82.0057°W)
Time: 08:43:26
(UTC+00:00)

Cosmos 540 Rocket - Pass Details

Date: 17 June 2021
Orbit: 739 x 754 km, 74.1° (Epoch: 27 July)

Event Time Altitude Azimuth Distance (km) Brightness Sun altitude
Exits shadow 07:22:33 43° 217° (SW) 1,031 3.7 -20.2°
Maximum altitude 07:24:11 74° 290° (WNW) 774 3.4 -20.0°
Drops below altitude 10° 07:29:18 10° 16° (NNE) 2,258 7.1 -19.5°
Sets 07:31:40 0° 18° (NNE) 3,186 8.2 -19.3°
